Location: Casteide
(43.5167°N, 0.5667°W)
Time: 00:39:41
(UTC+00:00)

Daily predictions for brighter satellites

Satellite Brightness Start Highest point End
(mag) Time Altitude Azimuth Time Altitude Azimuth Time Altitude Azimuth
Cosmos 2082 Rocket 3.8 03:49:32 29° ESE 03:49:32 29° ESE 03:54:14 10° NE
COSMOS 2455 4.2 03:58:09 32° NE 03:58:23 32° NE 04:03:44 10° ESE
Cosmos 1980 Rocket 3.0 04:14:14 45° ESE 04:14:14 45° ESE 04:18:12 10° SE
Cosmos 2279 Rocket 4.3 04:14:28 62° ESE 04:14:28 62° ESE 04:19:56 10° SSE
Cosmos 2098 Rocket 4.3 04:15:57 56° E 04:15:57 56° E 04:21:12 10° SSE
Tiangong 1.5 04:27:21 11° ESE 04:27:21 11° ESE 04:27:25 10° ESE
Cosmos 2333 Rocket 4.4 04:33:56 12° N 04:37:43 21° NE 04:41:57 10° E
Cosmos 2142 Rocket 4.3 04:47:06 34° N 04:50:03 85° W 04:56:15 10° S
USA 234 4.4 04:51:11 10° NE 04:56:29 27° N 04:57:47 25° NNW
SL-4 R/B 4.1 05:03:15 14° NE 05:03:15 14° NE 05:04:04 10° NE
Cosmos 2322 Rocket 4.1 05:02:03 10° N 05:06:41 25° NE 05:11:16 10° ESE
Meteor 2-3 Rocket 4.2 05:03:44 10° S 05:09:22 60° E 05:14:59 10° NNE
Cosmos 1726 Rocket 4.0 05:08:07 20° N 05:10:59 58° E 05:15:07 10° SSE
Cosmos 489 Rocket 4.4 05:06:58 10° SSW 05:13:17 87° ESE 05:19:36 10° NNE
Nadezhda 4 Rocket 3.9 05:08:01 10° S 05:14:20 81° W 05:20:39 10° N
Cosmos 1428 Rocket 4.5 05:09:15 10° S 05:15:27 86° E 05:21:46 10° N
CZ-4 R/B 3.7 05:12:15 10° NNE 05:16:55 83° ESE 05:21:31 10° SSW
NOSS 2-1 (D) 3.2 05:17:47 67° NNW 05:18:17 84° NE 05:23:09 10° SE
SL-24 R/B - RUBIN 2 4.5 05:19:22 33° SSW 05:19:22 33° SSW 05:22:26 10° S
Cosmos 2237 4.2 05:15:45 26° NNW 05:19:05 83° ENE 05:24:47 10° SSE
USA 59 Rocket -0.3 05:20:26 66° NW 05:20:58 83° SW 05:25:56 10° SSE
Cosmos 841 Rocket 3.3 05:16:07 10° SSW 05:21:19 77° WNW 05:26:36 10° NNE
CZ-3 R/B 4.3 05:14:25 20° WSW 05:21:48 26° SW 05:29:14 10° S
COSMOS 2406 3.1 05:16:09 10° SSW 05:21:49 87° ESE 05:27:32 10° NNE
NOSS 2-1 (E) 3.4 05:25:12 50° NNW 05:26:09 79° NE 05:30:57 10° SE
Cosmos 1933 3.5 05:27:10 47° SW 05:27:10 47° SW 05:30:13 10° S
NOSS 3-1 (C) 4.1 05:21:26 23° NW 05:26:31 85° NE 05:35:33 10° SE
Cosmos 1892 Rocket 3.6 05:24:04 10° S 05:28:25 77° E 05:32:48 10° N
Cosmos 2195 Rocket 4.5 05:22:31 10° S 05:28:47 88° E 05:35:08 10° N
ATLAS CENTAUR Rocket 4.5 05:27:43 10° SSW 05:32:00 24° SSE 05:42:40 10° ESE
Cosmos 2082 Rocket 2.5 05:31:29 33° W 05:33:18 42° WNW 05:38:38 10° NNE
SL-16 R/B 2.6 05:28:40 13° NNW 05:33:39 62° ENE 05:39:14 10° SE
IRS-1D 3.6 05:39:14 10° N 05:44:03 49° WNW 05:48:55 10° SW
COSMOS 2455 3.0 05:41:19 26° NW 05:44:32 50° WSW 05:50:18 10° S
Cosmos 1898 Rocket 3.7 05:42:42 26° NW 05:45:17 47° WSW 05:50:17 10° S
NOSS 2-1 (C) 3.5 05:44:49 36° WNW 05:46:09 57° SW 05:51:01 10° SSE
Meteor 2-20 4.4 05:40:47 10° N 05:46:55 86° W 05:53:00 10° S
SWAS 4.5 05:51:06 29° NW 05:52:47 50° WSW 05:56:41 10° S
Cosmos-2242 3.1 05:51:07 10° N 05:55:23 78° E 05:59:34 10° SSE
COSMO-SKYMED 1 2.6 05:51:51 10° S 05:55:50 50° W 05:59:10 14° NNW
Cosmos 1980 Rocket 3.5 05:56:02 19° W 05:56:06 19° W 05:59:55 10° SW
Cosmos 2278 3.8 05:51:06 10° NNW 05:56:48 81° ENE 06:02:26 10° SSE
SKYMED 2 4.3 05:55:08 10° SSW 05:59:02 32° W 06:01:14 20° NW
Tiangong -0.5 05:59:42 20° WSW 06:00:57 25° SSW 06:03:41 10° SE
Cosmos 2369 4.4 05:58:13 21° WNW 06:01:02 32° WSW 06:05:59 10° SSW
Cosmos 1627 Rocket 4.4 05:55:16 10° SSW 06:01:19 66° W 06:07:26 10° N
Cosmos 2058 Rocket 3.0 05:58:06 10° N 06:02:33 80° W 06:06:56 10° S
Cosmos 1484 Rocket 2.3 05:59:14 10° N 06:02:39 74° WNW 06:06:00 10° SSW
Meteor 2-2 Rocket 4.2 06:00:09 10° NNW 06:05:52 83° W 06:11:39 10° S
Okean 1 2.9 06:04:40 10° N 06:08:15 88° W 06:11:48 10° S
Meteor 2-20 Rocket 4.2 06:03:18 10° N 06:09:06 81° W 06:14:47 10° S
Cosmos 1937 Rocket 4.0 06:06:02 15° NW 06:09:49 38° WSW 06:14:30 10° S
ATLAS 2AS CENTAUR R/B 4.2 06:06:46 10° S 06:13:16 40° ESE 06:19:37 10° NE
ARIANE 5 R/B 3.9 06:09:53 10° NNE 06:14:52 43° E 06:19:48 10° S
Cosmos 2285 Rocket 4.4 06:08:32 10° NNW 06:14:53 66° ENE 06:21:15 10° SSE
IRIDIUM 104 4.4 06:11:31 10° S 06:16:44 85° E 06:21:59 10° N
Cosmos 2333 Rocket 2.2 06:16:51 10° NNW 06:22:38 75° WSW 06:28:20 10° SSE
IRIDIUM 114 4.3 06:20:39 10° S 06:25:52 80° W 06:31:08 10° N
SMAP 3.2 06:21:24 10° NNE 06:26:05 79° ESE 06:30:44 10° S
Helios 1A Rocket 3.9 06:25:08 10° SW 06:27:33 19° W 06:29:20 13° WNW
Cosmos 2360 Rocket 2.3 06:23:29 10° NNW 06:29:09 85° ENE 06:34:46 10° SSE
Cosmos 2026 Rocket 4.4 06:25:24 10° SW 06:30:57 37° WNW 06:36:34 10° N
Landsat 7 4.1 06:27:22 10° NNE 06:32:02 72° E 06:36:41 10° S
Cosmos 1814 Rocket 4.0 06:27:19 10° SSW 06:32:31 74° WNW 06:37:49 10° NNE
NOSS 3-1 (A) 4.2 06:25:45 10° NW 06:33:07 82° WSW 06:42:13 10° SSE
CBERS-1 4.1 06:29:45 10° N 06:34:46 58° WNW 06:39:44 10° SSW
IRIDIUM 103 4.3 06:29:53 10° SSW 06:35:03 66° W 06:40:16 10° N
IGS 5A 3.8 06:31:47 10° N 06:35:32 39° WNW 06:39:16 10° SW
BREEZE-M DEB (TANK) 2.2 06:34:37 13° NW 06:36:05 45° NNE 06:38:41 10° ESE
USA 234 4.3 06:32:33 10° E 06:38:21 35° NNE 06:44:10 10° NW
Cosmos 1758 Rocket 3.5 06:34:33 10° SSW 06:38:58 69° W 06:43:22 10° N
Cosmos 1733 2.0 06:38:14 10° SSW 06:39:56 31° WNW 06:41:38 10° NNW
SL-4 R/B 2.6 06:37:01 10° NW 06:39:56 30° NNE 06:42:48 10° E
Cosmos 1743 2.2 06:36:52 10° S 06:40:06 85° W 06:43:22 10° N
IRS-1C 4.4 06:38:44 10° NNE 06:44:05 76° ESE 06:49:24 10° S
BREEZE-M DEB (TANK) 3.7 06:42:45 10° WNW 06:45:27 40° N 06:52:04 10° ENE
Meteor 2-6 Rocket 4.4 06:40:14 10° NNW 06:46:10 69° W 06:52:03 10° S
Thor Agena Rocket 3.5 06:42:16 10° N 06:47:16 64° WNW 06:52:13 10° SSW
Cosmos 2219 Rocket 2.5 06:42:20 10° NNW 06:48:00 73° ENE 06:53:37 10° SSE
Cosmos 2322 Rocket 2.4 06:45:30 10° NNW 06:51:05 58° WSW 06:56:37 10° S
S3M 4.3 06:45:49 10° N 06:52:02 75° E 06:58:08 10° SSE
Cosmos 1553 Rocket 4.3 06:48:29 10° NNW 06:54:38 51° W 07:00:47 10° SSW
